This is the latest recevied weather packets stored in our database for station/object K4MUW-4. If no packets are shown the sender has not sent any weather packets the latest 10 day(s).
| Time | Temp. | Humidity | Pressure | Rain* | Wind** | Luminosity | Snow |
|---|---|---|---|---|---|---|---|
| 1777330104 | 25.56° C | 37% | 1015 hPa | 0 mm | 2.68 m/s, 186° | - | - |
| 1777329803 | 25.56° C | 37% | 1015 hPa | 0 mm | 1.79 m/s, 181° | - | - |
| 1777329503 | 25.56° C | 37% | 1015 hPa | 0 mm | 2.24 m/s, 190° | - | - |
| 1777329202 | 25.56° C | 36% | 1015 hPa | 0 mm | 1.79 m/s, 179° | - | - |
| 1777328902 | 26.11° C | 36% | 1015 hPa | 0 mm | 2.24 m/s, 183° | - | - |
| 1777328602 | 26.11° C | 36% | 1015 hPa | 0 mm | 1.34 m/s, 188° | - | - |
| 1777328301 | 26.11° C | 37% | 1014 hPa | 0 mm | 1.79 m/s, 161° | - | - |
| 1777328001 | 26.11° C | 36% | 1014 hPa | 0 mm | 2.24 m/s, 220° | - | - |
| 1777327692 | 26.11° C | 36% | 1014 hPa | 0 mm | 1.79 m/s, 184° | - | - |
| 1777327391 | 26.11° C | 36% | 1015 hPa | 0 mm | 1.34 m/s, 197° | - | - |
| 1777327091 | 26.11° C | 36% | 1015 hPa | 0 mm | 2.68 m/s, 143° | - | - |
| 1777326791 | 26.11° C | 36% | 1015 hPa | 0 mm | 2.68 m/s, 203° | - | - |
| 1777326490 | 26.11° C | 36% | 1015 hPa | 0 mm | 1.79 m/s, 181° | - | - |
| 1777326190 | 26.11° C | 36% | 1015 hPa | 0 mm | 1.79 m/s, 127° | - | - |
| 1777325889 | 26.11° C | 36% | 1015 hPa | 0 mm | 0 m/s | - | - |
| 1777325589 | 26.11° C | 35% | 1015 hPa | 0 mm | 1.79 m/s, 201° | - | - |
| 1777325289 | 26.11° C | 35% | 1015 hPa | 0 mm | 2.68 m/s, 188° | - | - |
| 1777324988 | 26.11° C | 35% | 1015 hPa | 0 mm | 1.34 m/s, 184° | - | - |
| 1777324683 | 26.11° C | 34% | 1015 hPa | 0 mm | 2.68 m/s, 194° | - | - |
| 1777324378 | 26.11° C | 35% | 1015 hPa | 0 mm | 1.79 m/s, 164° | - | - |
| 1777324077 | 26.11° C | 35% | 1015 hPa | 0 mm | 0 m/s | - | - |
| 1777323777 | 26.11° C | 35% | 1015 hPa | 0 mm | 3.13 m/s, 210° | - | - |
| 1777323476 | 26.11° C | 35% | 1015 hPa | 0 mm | 2.68 m/s, 213° | - | - |
| 1777323176 | 26.11° C | 35% | 1015 hPa | 0 mm | 1.34 m/s, 192° | - | - |
| 1777322876 | 26.11° C | 35% | 1015 hPa | 0 mm | 0 m/s | - | - |
* Rain latest hour (hover to see other rain measurements)
** Current wind speed in m/s (hover to see current wind gust speed)